Regional Weather Roundup
Issued by NWS

Home | Current Version | Previous Version | Text Only | Print | Product List | Glossary Off
Versions: 1 2 3 4 5 6 7 8 9 10 11 12 13 14 15 16 17 18 19 20 21 22 23 24 25 26 27 28 29 30 31 32 33 34 35 36 37 38 39 40 41 42 43 44 45 46 47 48 49 50

000
ASUS43 KLSX 182357
RWRMO

WEATHER SUMMARY FOR MISSOURI
NATIONAL WEATHER SERVICE SPRINGFIELD MO
600 PM CST SAT NOV 18 2017

NOTE: "FAIR" INDICATES FEW OR NO CLOUDS BELOW 12,000 FEET WITH NO
       SIGNIFICANT WEATHER AND/OR OBSTRUCTIONS TO VISIBILITY.
       CURRENT SKY AND/OR WEATHER CONDITIONS ARE NOT AVAILABLE FOR
       CHILLICOTHE AND FARMINGTON.

MOZ001>031-035>038-043-044-053-054-190100-
...NORTHERN AND WESTERN MISSOURI...

CITY           SKY/WX    TMP DP  RH WIND       PRES   REMARKS
KANSAS CTY INT CLEAR     46  31  55 NW14      30.07R
6HR MIN TEMP:  44; 6HR MAX TEMP:  51;

LEE`S SUMMIT   CLEAR     46  31  55 NW14      30.06R
6HR MIN TEMP:  43; 6HR MAX TEMP:  50;

ST JOSEPH      CLEAR     44  28  53 NW14      30.09R
6HR MIN TEMP:  44; 6HR MAX TEMP:  51;

CHILLICOTHE      N/A     44  32  62 NW6       30.02R
6HR MIN TEMP:  44; 6HR MAX TEMP:  50;


$$
MOZ066>068-077>081-088>096-101>105-190100-
...SOUTHWEST MISSOURI...

CITY           SKY/WX    TMP DP  RH WIND       PRES   REMARKS
SPRINGFIELD    CLEAR     43  34  70 NW9       30.05R
6HR MIN TEMP:  43; 6HR MAX TEMP:  45; 6HR PCP:  0.02;

JOPLIN         CLEAR     44  37  76 NW9       30.11R
6HR MIN TEMP:  44; 6HR MAX TEMP:  49; 6HR PCP:  0.02;

BRANSON        CLEAR     43  32  65 NW12G22   30.06R

$$
MOZ032>034-039>042-045>050-055>058-069>072-190100-
...CENTRAL MISSOURI...

CITY           SKY/WX    TMP DP  RH WIND       PRES   REMARKS
COLUMBIA       NOT AVBL
JEFFERSON CITY PTCLDY    44  34  67 NW7       29.98R
6HR MIN TEMP:  43; 6HR MAX TEMP:  46; 6HR PCP:  0.14;

ROLLA          CLEAR     40  35  83 W12       29.96R
6HR MIN TEMP:  40; 6HR MAX TEMP:  43; 6HR PCP:  0.15;

SEDALIA        CLEAR     45  34  65 NW10      30.02R
6HR MIN TEMP:  43; 6HR MAX TEMP:  48; 6HR PCP:  0.05;

WARRENSBURG    CLEAR     45  32  61 NW10G20   30.03R

$$
MOZ051-052-059>065-190100-
...EAST CENTRAL MISSOURI...

CITY           SKY/WX    TMP DP  RH WIND       PRES   REMARKS
ST LOUIS INTL  PTCLDY    43  37  79 NW13G22   29.87R
6HR MIN TEMP:  40; 6HR MAX TEMP:  46; 6HR PCP:  0.24;


$$
MOZ072>076-082>087-097>100-106>115-190100-
...SOUTH CENTRAL AND SOUTHEAST MISSOURI...

CITY           SKY/WX    TMP DP  RH WIND       PRES   REMARKS
CAPE GIRARDEAU CLOUDY    45  38  76 NW17G28   29.85R
6HR MIN TEMP:  45; 6HR MAX TEMP:  71; 6HR PCP:  0.25;

POPLAR BLUFF   PTCLDY    48  38  68 NW17G25   29.88R
6HR MIN TEMP:  48; 6HR MAX TEMP:  74; 6HR PCP:  0.22;

WEST PLAINS    LGT RAIN  44  34  67 NW15G30   29.99R
6HR MIN TEMP:  44; 6HR MAX TEMP:  51; 6HR PCP: TRACE;


$$



USA.gov is the U.S. government's official web portal to all federal, state and local government web resources and services.